This is the latest recevied weather packets stored in our database for station/object KC9NPJ-13. If no packets are shown the sender has not sent any weather packets the latest 10 day(s).
| Time | Temp. | Humidity | Pressure | Rain* | Wind** | Luminosity | Snow |
|---|---|---|---|---|---|---|---|
| 1777993441 | 12.78° C | 92% | 1009.2 hPa | 5.84 mm | - | - | - |
| 1777993141 | 12.78° C | 92% | 1009 hPa | 6.1 mm | - | - | - |
| 1777992841 | 13.33° C | 92% | 1009 hPa | 6.6 mm | - | - | - |
| 1777992541 | 13.33° C | 93% | 1008.8 hPa | 7.11 mm | - | - | - |
| 1777992241 | 13.89° C | 93% | 1009.1 hPa | 7.37 mm | - | - | - |
| 1777991941 | 13.89° C | 92% | 1009.6 hPa | 7.37 mm | - | - | - |
| 1777991641 | 13.89° C | 92% | 1009.7 hPa | 7.11 mm | - | - | - |
| 1777991341 | 13.89° C | 92% | 1009.6 hPa | 6.35 mm | - | - | - |
| 1777991041 | 14.44° C | 92% | 1009.6 hPa | 5.59 mm | - | - | - |
| 1777990741 | 14.44° C | 93% | 1009.7 hPa | 4.57 mm | - | - | - |
| 1777990441 | 14.44° C | 92% | 1009.4 hPa | 3.81 mm | - | - | - |
| 1777989841 | 15° C | 92% | 1009.2 hPa | 2.03 mm | - | - | - |
| 1777989541 | 15° C | 91% | 1009.2 hPa | 1.52 mm | - | - | - |
| 1777989241 | 15° C | 91% | 1009.2 hPa | 1.02 mm | - | - | - |
| 1777988941 | 15° C | 91% | 1009.2 hPa | 0.25 mm | - | - | - |
| 1777988641 | 15° C | 90% | 1008.9 hPa | 0 mm | - | - | - |
| 1777988341 | 15.56° C | 90% | 1008.3 hPa | 0 mm | - | - | - |
| 1777988041 | 15.56° C | 90% | 1008.2 hPa | 0 mm | - | - | - |
| 1777987741 | 15.56° C | 90% | 1008.3 hPa | 0 mm | - | - | - |
| 1777987441 | 15.56° C | 90% | 1008.4 hPa | 0 mm | - | - | - |
| 1777987141 | 15.56° C | 90% | 1008.2 hPa | 0 mm | - | - | - |
| 1777986841 | 15.56° C | 90% | 1008 hPa | 0 mm | - | - | - |
| 1777986541 | 15.56° C | 90% | 1008 hPa | 0 mm | - | - | - |
| 1777986241 | 15.56° C | 90% | 1007.9 hPa | 0 mm | - | - | - |
| 1777985941 | 15.56° C | 90% | 1007.8 hPa | 0 mm | - | - | - |
* Rain latest hour (hover to see other rain measurements)
** Current wind speed in m/s (hover to see current wind gust speed)